Weather History for KOZR - September, 2014

Change the Weather History Date:

Sunday, September 7, 2014

  Actual Average Record
Temperature  
Mean Temperature 82 °F -  
Max Temperature 91 °F 84 °F 97 °F (2010)
Min Temperature 72 °F 65 °F 46 °F (1999)
Cooling Degree Days 16    
Growing Degree Days 32 (Base 50)    
Moisture  
Dew Point 72 °F    
Average Humidity 88    
Maximum Humidity 97    
Minimum Humidity 52    
Precipitation  
Precipitation 1.57 in - - ()
Sea Level Pressure  
Sea Level Pressure 29.97 in    
Wind  
Wind Speed 5 mph (SW)    
Max Wind Speed 29 mph    
Max Gust Speed 41 mph    
Visibility 8 miles    
Events Rain , Thunderstorm    
Averages and records for this station are not official NWS values.
T = Trace of Precipitation, MM = Missing Value Source: NWS Daily Summary

Daily Weather History Graph

Daily Weather History Graph

Search for Another Location

Airport or City:

Trip Planner

Search our weather history database for the weather conditions in past years. The results will help you decide how hot, cold, wet, or windy it might be!

Date:

Astronomy

Sep. 07, 2014 Rise Set
Actual Time 6:22 AM CDT 6:58 PM CDT
Civil Twilight 5:57 AM CDT 7:23 PM CDT
Nautical Twilight 5:29 AM CDT 7:52 PM CDT
Astronomical Twilight 4:59 AM CDT 8:21 PM CDT
Moon 5:55 PM CDT (9/7) 4:38 AM CDT (9/7)
Length of Visible Light 13h 25m
Length of Day
12h 36m
Waxing Gibbous, 97% of the Moon is Illuminated
Sep 7
Waxing Gibbous
Sep 8
Full
Sep 15
Last Quarter
Sep 24
New
Oct 1
First Quarter

Hourly Weather History & Observations

Time (CDT) Temp. Heat Index Dew Point Humidity Pressure Visibility Wind Dir Wind Speed Gust Speed Precip Events Conditions
12:58 AM 74.1 °F - 72.3 °F 94% 29.98 in 10.0 mi SSE 2.3 mph - N/A   Scattered Clouds
1:58 AM 73.6 °F - 72.1 °F 95% 29.97 in 10.0 mi West 3.5 mph - N/A   Clear
2:58 AM 73.6 °F - 72.5 °F 96% 29.97 in 10.0 mi WSW 4.6 mph - N/A   Clear
3:58 AM 73.8 °F - 72.5 °F 96% 29.95 in 10.0 mi Calm Calm - N/A   Clear
4:58 AM 72.5 °F - 71.6 °F 97% 29.96 in 7.0 mi SSE 1.2 mph - N/A   Clear
5:58 AM 72.5 °F - 71.6 °F 97% 29.97 in 9.0 mi WSW 3.5 mph - N/A   Clear
6:58 AM 72.3 °F - 71.4 °F 97% 29.99 in 5.0 mi Calm Calm - N/A   Clear
7:58 AM 75.9 °F - 74.3 °F 95% 29.99 in 10.0 mi Calm Calm - N/A   Clear
8:58 AM 81.1 °F 86.6 °F 74.1 °F 79% 29.99 in 10.0 mi Calm Calm - N/A   Clear
9:58 AM 84.2 °F 90.3 °F 72.7 °F 68% 30.00 in 10.0 mi Calm Calm - N/A   Clear
10:58 AM 86.7 °F 94.6 °F 73.8 °F 65% 30.00 in 10.0 mi SW 5.8 mph - N/A   Partly Cloudy
11:58 AM 89.6 °F 96.6 °F 72.1 °F 56% 29.99 in 10.0 mi South 5.8 mph - N/A   Clear
12:32 PM 91.4 °F 98.4 °F 71.6 °F 52% 29.96 in 10.0 mi WSW 6.9 mph - N/A Thunderstorm Thunderstorm
12:58 PM 89.1 °F 97.0 °F 73.0 °F 59% 29.97 in 10.0 mi NW 8.1 mph - 0.01 in Thunderstorm Thunderstorm
1:08 PM 82.4 °F 89.5 °F 75.2 °F 79% 29.99 in 6.0 mi NNW 23.0 mph 28.8 mph N/A Rain , Thunderstorm Light Thunderstorms and Rain
1:13 PM 80.6 °F 86.2 °F 75.2 °F 84% 29.98 in 1.2 mi North 28.8 mph 33.4 mph N/A Rain , Thunderstorm Heavy Thunderstorms and Rain
1:17 PM 77.0 °F - 73.4 °F 89% 29.99 in 0.5 mi North 25.3 mph 40.3 mph N/A Rain , Thunderstorm Heavy Thunderstorms and Rain
1:21 PM 75.2 °F - 71.6 °F 89% 29.99 in 0.5 mi NNW 16.1 mph 41.4 mph N/A Rain , Thunderstorm Heavy Thunderstorms and Rain
1:22 PM 75.2 °F - 69.8 °F 83% 29.99 in 0.2 mi West 12.7 mph 41.4 mph N/A Rain , Thunderstorm Heavy Thunderstorms and Rain
1:27 PM 75.2 °F - 69.8 °F 83% 29.98 in 0.2 mi West 23.0 mph 41.4 mph N/A Rain , Thunderstorm Heavy Thunderstorms and Rain
1:37 PM 75.2 °F - 68.0 °F 78% 29.97 in 0.5 mi WSW 10.4 mph - N/A Rain , Thunderstorm Heavy Thunderstorms and Rain
1:42 PM 73.4 °F - 69.8 °F 88% 29.97 in 0.8 mi SW 10.4 mph - N/A Rain , Thunderstorm Heavy Thunderstorms and Rain
1:47 PM 73.4 °F - 68.0 °F 83% 29.97 in 1.5 mi South 5.8 mph - N/A Rain , Thunderstorm Heavy Thunderstorms and Rain
1:52 PM 73.4 °F - 69.8 °F 88% 29.96 in 4.0 mi SE 2.3 mph - N/A Rain , Thunderstorm Thunderstorms and Rain
1:58 PM 73.4 °F - 69.3 °F 87% 29.95 in 7.0 mi South 5.8 mph - 1.55 in Rain , Thunderstorm Light Thunderstorms and Rain
2:15 PM 73.4 °F - 69.8 °F 88% 29.96 in 10.0 mi SSW 3.5 mph - N/A Thunderstorm Thunderstorm
2:26 PM 73.4 °F - 71.6 °F 94% 29.96 in 10.0 mi SW 4.6 mph - N/A Rain , Thunderstorm Light Thunderstorms and Rain
2:34 PM 75.2 °F - 71.6 °F 89% 29.96 in 10.0 mi SSW 8.1 mph - N/A Thunderstorm Light Drizzle
2:43 PM 75.2 °F - 71.6 °F 89% 29.97 in 10.0 mi WSW 6.9 mph - N/A Rain , Thunderstorm Light Thunderstorms and Rain
2:53 PM 73.4 °F - 71.6 °F 94% 29.96 in 10.0 mi West 5.8 mph - N/A Thunderstorm Thunderstorm
2:58 PM 73.8 °F - 72.0 °F 94% 29.96 in 10.0 mi West 3.5 mph - 0.00 in Thunderstorm Thunderstorm
3:09 PM 73.4 °F - 71.6 °F 94% 29.95 in 10.0 mi West 2.3 mph - N/A   Clear
3:58 PM 75.2 °F - 72.7 °F 92% 29.94 in 10.0 mi East 2.3 mph - 0.00 in   Light Drizzle
4:27 PM 75.2 °F - 73.4 °F 94% 29.92 in 10.0 mi ENE 3.5 mph - N/A Rain , Thunderstorm Light Thunderstorms and Rain
4:42 PM 75.2 °F - 73.4 °F 94% 29.92 in 10.0 mi Calm Calm - N/A Rain Light Rain
4:58 PM 74.7 °F - 73.2 °F 95% 29.93 in 10.0 mi WSW 2.3 mph - 0.01 in   Light Drizzle
4:59 PM 75.2 °F - 73.4 °F 94% 29.93 in 10.0 mi WSW 3.5 mph - N/A   Clear
5:58 PM 74.7 °F - 73.4 °F 96% 29.94 in 10.0 mi SE 4.6 mph - 0.00 in   Clear
6:02 PM 75.2 °F - 73.4 °F 94% 29.94 in 10.0 mi SE 4.6 mph - N/A   Partly Cloudy
6:17 PM 75.2 °F - 73.4 °F 94% 29.95 in 10.0 mi SSE 4.6 mph - N/A   Mostly Cloudy
6:32 PM 75.2 °F - 73.4 °F 94% 29.95 in 10.0 mi South 4.6 mph - N/A   Scattered Clouds
6:58 PM 74.7 °F - 73.4 °F 96% 29.95 in 10.0 mi West 1.2 mph - N/A   Partly Cloudy
7:58 PM 74.7 °F - 73.4 °F 96% 29.96 in 10.0 mi Calm Calm - N/A   Mostly Cloudy
8:58 PM 74.3 °F - 73.4 °F 97% 29.99 in 10.0 mi NE 4.6 mph - N/A   Mostly Cloudy
9:58 PM 74.1 °F - 73.2 °F 97% 30.00 in 10.0 mi NNE 3.5 mph - N/A   Overcast
10:58 PM 74.5 °F - 73.2 °F 96% 30.01 in 10.0 mi NE 6.9 mph - N/A   Overcast
11:58 PM 73.6 °F - 72.7 °F 97% 29.99 in 10.0 mi South 4.6 mph - N/A   Mostly Cloudy